Weather History for PAMR - March, 2014

Change the Weather History Date:

Wednesday, March 12, 2014

  Actual Average Record
Temperature  
Mean Temperature 34 °F -  
Max Temperature 36 °F 31 °F 48 °F (2005)
Min Temperature 30 °F 15 °F -4 °F (2012)
Degree Days  
Heating Degree Days 32    
Moisture  
Dew Point 26 °F    
Average Humidity 77    
Maximum Humidity 93    
Minimum Humidity 64    
Precipitation  
Precipitation 0.01 in - - ()
Snow  
Snow 0.00 in - - ()
Snow Depth 6.00 in    
Sea Level Pressure  
Sea Level Pressure 29.40 in    
Wind  
Wind Speed 5 mph (WNW)    
Max Wind Speed 12 mph    
Max Gust Speed 18 mph    
Visibility 10 miles    
Events Rain    
Averages and records for this station are not official NWS values.
T = Trace of Precipitation, MM = Missing Value Source: NWS Daily Summary

Daily Weather History Graph

Daily Weather History Graph

Search for Another Location

Airport or City:

Trip Planner

Search our weather history database for the weather conditions in past years. The results will help you decide how hot, cold, wet, or windy it might be!

Date:

Astronomy

Mar. 12, 2014 Rise Set
Actual Time 8:25 AM AKDT 7:54 PM AKDT
Civil Twilight 7:42 AM AKDT 8:37 PM AKDT
Nautical Twilight 6:51 AM AKDT 9:28 PM AKDT
Astronomical Twilight 5:58 AM AKDT 10:22 PM AKDT
Moon 3:48 PM AKDT (3/12) 6:52 AM AKDT (3/12)
Length of Visible Light 12h 54m
Length of Day
11h 28m
Waxing Gibbous, 86% of the Moon is Illuminated
Mar 12
Waxing Gibbous
Mar 16
Full
Mar 23
Last Quarter
Mar 30
New
Apr 7
First Quarter

Hourly Weather History & Observations

Time (AKDT) Temp. Windchill Dew Point Humidity Pressure Visibility Wind Dir Wind Speed Gust Speed Precip Events Conditions
12:53 AM 37.0 °F 32.4 °F 32.0 °F 82% 29.18 in 10.0 mi NE 5.8 mph - 0.00 in Rain Light Rain
1:53 AM 35.1 °F 32.2 °F 32.0 °F 89% 29.18 in 10.0 mi NNW 3.5 mph - 0.01 in Rain Light Rain
2:53 AM 34.0 °F 29.8 °F 30.9 °F 89% 29.19 in 10.0 mi WNW 4.6 mph - 0.00 in   Overcast
3:53 AM 35.1 °F - 32.0 °F 89% 29.20 in 10.0 mi Calm Calm - N/A   Overcast
4:53 AM 34.0 °F - 32.0 °F 92% 29.22 in 10.0 mi Calm Calm - N/A   Overcast
5:24 AM 33.8 °F - 32.0 °F 93% 29.22 in 10.0 mi Calm Calm - N/A   Overcast
5:53 AM 33.1 °F - 30.9 °F 92% 29.24 in 10.0 mi Calm Calm - N/A   Overcast
6:53 AM 33.1 °F 27.7 °F 30.9 °F 92% 29.28 in 10.0 mi SW 5.8 mph - N/A   Mostly Cloudy
7:11 AM 33.8 °F 25.3 °F 28.4 °F 81% 29.30 in 10.0 mi SW 11.5 mph 18.4 mph N/A   Overcast
7:53 AM 32.0 °F 24.8 °F 26.1 °F 79% 29.35 in 10.0 mi SW 8.1 mph 17.3 mph N/A   Overcast
8:53 AM 30.9 °F 23.5 °F 25.0 °F 79% 29.39 in 10.0 mi SW 8.1 mph - N/A   Overcast
9:53 AM 30.0 °F 23.2 °F 23.0 °F 75% 29.43 in 10.0 mi SW 6.9 mph - 0.00 in   Overcast
10:53 AM 30.0 °F 24.1 °F 23.0 °F 75% 29.49 in 10.0 mi SW 5.8 mph - N/A   Overcast
11:53 AM 30.9 °F 24.3 °F 21.9 °F 69% 29.52 in 10.0 mi SW 6.9 mph - N/A   Mostly Cloudy
12:53 PM 30.9 °F 23.5 °F 21.9 °F 69% 29.54 in 10.0 mi WNW 8.1 mph - N/A   Mostly Cloudy
1:53 PM 32.0 °F 24.2 °F 21.9 °F 66% 29.56 in 10.0 mi West 9.2 mph - N/A   Mostly Cloudy
2:53 PM 32.0 °F 24.8 °F 21.9 °F 66% 29.58 in 10.0 mi West 8.1 mph - N/A   Partly Cloudy
3:53 PM 32.0 °F 26.4 °F 21.9 °F 66% 29.58 in 10.0 mi WNW 5.8 mph - N/A   Partly Cloudy
4:53 PM 30.9 °F 25.2 °F 21.9 °F 69% 29.56 in 10.0 mi NW 5.8 mph - N/A   Mostly Cloudy
5:53 PM 32.0 °F 28.7 °F 23.0 °F 69% 29.56 in 10.0 mi North 3.5 mph - N/A   Overcast
6:53 PM 33.1 °F 26.9 °F 21.9 °F 64% 29.53 in 10.0 mi Variable 6.9 mph - N/A   Overcast
7:53 PM 33.1 °F 25.5 °F 23.0 °F 66% 29.51 in 10.0 mi North 9.2 mph - N/A   Overcast
8:53 PM 32.0 °F 27.5 °F 24.1 °F 73% 29.49 in 10.0 mi NW 4.6 mph - N/A   Overcast
9:53 PM 32.0 °F 27.5 °F 24.1 °F 73% 29.47 in 10.0 mi NW 4.6 mph - N/A   Overcast
10:53 PM 30.9 °F 22.8 °F 25.0 °F 79% 29.46 in 10.0 mi WNW 9.2 mph - N/A   Overcast
11:53 PM 30.9 °F 26.2 °F 24.1 °F 76% 29.42 in 10.0 mi NW 4.6 mph - N/A   Overcast